INTELSAT 33E DEB, 64408

Orbit data source: Space-Track

INTELSAT 33E DEB, 64408 is space debris in GEO originally from a launch on Wed, 24 Aug 2016 UTC launched from the French Guiana (FRGUI). Debris objects in space refer to the collection of defunct objects orbiting the Earth. Examples of debris include non-operational satellites, rocket bodies, and fragments generated from explosions, collisions, or faulty payload assembly.

Not visible in the next 10 days
Identifier
64408, 2016-053AN
Orbit
GEO
Country
Flag of UnknownUnknown / ITSO
Related business
Manufacturer
Boeing/ES
Mission
Spacecraft
Bus & Motor
Unknown
Mass
Unknown
Launch date (UTC)
2016-08-24 (9 years ago)
Launch vehicle
Unknown
Launch site
French Guiana (FRGUI)
Object type
Payload
Rocket body
Debris
Shape & HBR
Unknown shape, 1.1 m
Radar Cross Section
RCS unknown

Expand to show TLE details & history
Last TLE update: 1 day ago

TLE from 1 day ago
0 INTELSAT 33E DEB
1 64408U 16053AN  25339.77916603 -.00000251  00000-0  00000-0 0  9997
2 64408   1.8458  95.2773 0676713 242.5063 109.7296  1.03209039  4088
Epoch: 2025-12-05T18:41Z
TLE epoch observation values (Epoch: 2025-12-05T18:41:59.944Z)
Latitude
Longitude
99.22658°
Altitude
36,084.324 km
Speed
3.023 km/s
True Right ascension
06h 18m 10s
True Declination
0° 00' 00"
Sunlit
Object was in daylight at epoch
Visualization orbit readout
Latitude
Unknown
Longitude
Unknown
Altitude
Unknown
Speed
Unknown
Apparent Right ascension
Unknown
Apparent Declination
Unknown
Sunlit
N/A
Visualization observer readout
Local Sidereal Time
03:27:41
Azimuth
Unknown
Elevation
Unknown
Doppler factor
Unknown
Orbital elements
Apogee altitude
37,782.883 km
Perigee altitude
32,184.842 km
Semi-major axis
41,362 km
Eccentricity
0.06767
Inclination
1.8458°
RAAN
95.2773°
Arg. of periapsis
242.5063°
True anomaly
116.80809°
Mean anomaly
109.7296°
Eccentric anomaly
113.29092°
Mean motion
0.25801 °/min
Orbital period
1,395.28 mins
BSTAR
0
Loading maneuver chart data...
Computing Atmospheric mass density...
Loading historical data...
Loading historical data...
Loading historical data...
Loading historical data...
Loading historical data...
Loading historical data...
Loading historical data...

Documentation

Showing up to 5 results
|